[[{"header":{"parameterUnit":"m.s-1","parameterCategory":1,"la1":30.2991,"la2":30.254,"lo1":-89.0895,"lo2":-89.0444,"dy":0.0017,"dx":0.0017,"nx":28,"ny":28,"refTime":"2023-09-11T03:00:00:Z","depth":0,"parameterNumber":2,"parameterNumberName":"U-component_of_WINDS"},"data":[0,0,0,0,0,0,0,0,0,0,0,0,0,0,0,0,0,0,0,0,0,0,0,0,0,0,0,0,0,0,0,0,0,0,0,0,0,0,0,0,0,0,0,0,0,0,0,0,0,0,0,0,0,0,0,0,0,0,-1.0272,-1.0272,0,-1.0311,-1.0312,-1.0312,-1.0298,-1.0297,-1.0296,-1.0296,-1.0337,-1.0339,-1.0341,0,0,0,0,0,0,0,0,0,0,0,0,0,-1.0186,-1.0188,-1.0272,-1.0272,-1.0273,-1.0311,-1.0312,-1.0312,-1.0298,-1.0297,-1.0296,-1.0295,-1.0337,-1.0339,-1.0341,0,0,0,0,0,0,0,0,0,0,0,0,0,-1.0224,-1.0188,-1.0272,-1.027,-1.0271,-1.0311,-1.0312,-1.0312,-1.0299,-1.0297,-1.0296,-1.0295,-1.0336,-1.0339,-1.0342,-1.0386,0,0,-1.035,-1.0352,0,0,0,0,0,0,0,0,-1.0222,-1.0227,-1.027,-1.0271,-1.0271,-1.0298,-1.0297,-1.0337,-1.0299,-1.0288,-1.0296,-1.0294,-1.0326,-1.0329,-1.034,-1.0388,-1.039,-1.0351,-1.0352,-1.0354,-1.0355,0,0,0,0,0,0,0,-1.022,-1.0226,-1.0287,-1.0271,-1.0271,-1.0268,-1.0272,-1.0304,-1.0314,-1.0289,-1.0288,-1.0293,-1.0326,-1.0337,-1.034,-1.039,-1.0351,-1.0353,-1.0355,-1.0356,-1.0478,-1.0479,0,0,0,0,0,0,-1.0217,-1.0224,-1.0286,-1.0289,-1.0243,-1.0271,-1.0276,-1.0291,-1.0313,-1.0315,-1.0294,-1.0292,-1.0332,-1.0337,-1.0342,-1.0396,-1.0354,-1.0356,-1.0358,-1.0476,-1.0478,-1.048,0,0,0,0,0,0,-1.0215,-1.0222,-1.0284,-1.0256,-1.0264,-1.0274,-1.0291,-1.0292,-1.0304,-1.0317,-1.0319,-1.0304,-1.0332,-1.0338,-1.0375,-1.0397,-1.0358,-1.036,-1.0474,-1.0477,-1.0479,-1.0503,0,0,0,0,0,0,-1.0212,-1.0222,-1.0238,-1.0256,-1.0265,-1.0317,-1.0293,-1.0294,-1.0309,-1.0306,-1.0327,-1.0329,-1.0331,-1.0371,-1.0378,-1.04,-1.0363,-1.0472,-1.0475,-1.0478,-1.0501,-1.0506,-1.0511,0,0,0,0,0,-1.0209,-1.0244,-1.0239,-1.0247,-1.0286,-1.0318,-1.0323,-1.0325,-1.031,-1.0327,-1.0336,-1.0328,-1.0393,-1.0375,-1.0383,-1.0406,-1.0471,-1.0475,-1.0478,-1.0498,-1.0505,-1.0511,0,0,0,0,0,0,-1.0228,-1.0246,-1.0241,-1.0282,-1.0299,-1.0316,-1.0337,-1.0332,-1.0353,-1.035,-1.0352,-1.0356,-1.0395,-1.0404,-1.0383,-1.0451,-1.043,-1.0435,-1.0443,-1.045,-1.0455,-1.0452,-1.0365,0,0,0,0,0,-1.0237,-1.0261,-1.0275,-1.031,-1.0319,-1.0327,-1.0341,-1.034,-1.0358,-1.0365,-1.0376,-1.0394,-1.0418,-1.0434,-1.0458,-1.0502,-1.0507,-1.0522,-1.0527,-1.0531,-1.0536,-1.0561,-1.0568,-1.0491,-1.0491,-1.0491,0,0,-1.0256,-1.0268,-1.0283,-1.0314,-1.0327,-1.0353,-1.0332,-1.036,-1.0379,-1.0369,-1.0405,-1.0414,-1.0434,-1.0475,-1.0494,-1.0484,-1.0558,-1.0535,-1.0539,-1.0541,-1.0565,-1.0572,-1.0579,-1.0493,-1.0492,-1.0492,0,0,-1.0303,-1.0314,-1.0345,-1.0358,-1.0378,-1.0383,-1.039,-1.0408,-1.0414,-1.045,-1.0443,-1.0466,-1.0508,-1.0522,-1.0535,-1.0588,-1.0582,-1.0596,-1.0623,-1.0647,-1.0653,-1.0659,-1.0678,-1.0685,-1.06,-1.06,-1.0601,0,-1.0324,-1.0361,-1.0362,-1.039,-1.0404,-1.0396,-1.0427,-1.044,-1.0467,-1.0477,-1.0465,-1.0518,-1.0531,-1.0576,-1.0589,-1.0599,-1.0608,-1.0594,-1.0652,-1.0658,-1.0663,-1.0682,-1.0689,-1.0602,-1.0602,-1.0602,-1.0602,0,-1.0386,-1.0413,-1.0435,-1.046,-1.0477,-1.0507,-1.0513,-1.053,-1.0528,-1.0535,-1.0572,-1.0587,-1.0613,-1.0624,-1.0623,-1.0669,-1.0662,-1.0652,-1.0631,-1.0672,-1.069,-1.0697,-1.0604,-1.0604,-1.0603,-1.0603,0,0,-1.0447,-1.0472,-1.048,-1.0492,-1.0513,-1.0533,-1.0563,-1.0589,-1.0604,-1.0622,-1.0648,-1.0684,-1.0674,-1.0689,-1.0689,-1.071,-1.0753,-1.0697,-1.0698,-1.0708,-1.0805,-1.0814,-1.0822,-1.0748,-1.075,-1.0751,-1.0804,0,-1.0496,-1.0548,-1.0549,-1.0597,-1.0622,-1.0614,-1.064,-1.0656,-1.0663,-1.0686,-1.0693,-1.0719,-1.0704,-1.0713,-1.0734,-1.0743,-1.0772,-1.0739,-1.0773,-1.0774,-1.0769,-1.0831,-1.084,-1.0889,-1.0811,-1.0812,-1.0813,0,-1.056,-1.0581,-1.0631,-1.0649,-1.0659,-1.0683,-1.0706,-1.0728,-1.0746,-1.075,-1.0766,-1.0764,-1.0795,-1.0773,-1.0817,-1.0794,-1.0808,-1.0815,-1.0817,-1.0821,-1.0796,-1.0837,-1.0905,-1.0913,-1.0824,-1.0823,-1.0822,0,-1.06,-1.064,-1.0675,-1.0685,-1.0707,-1.0724,-1.0734,-1.0751,-1.0766,-1.0787,-1.0797,-1.0822,-1.0835,-1.0855,-1.0859,-1.0843,-1.0903,-1.0882,-1.0908,-1.0908,-1.0921,-1.092,-1.0993,-1.0929,-1.0929,-1.0929,-1.0929,0,-1.0656,-1.0687,-1.0694,-1.0715,-1.075,-1.0752,-1.0787,-1.0795,-1.0811,-1.0835,-1.083,-1.0852,-1.0856,-1.088,-1.0884,-1.092,-1.0926,-1.093,-1.0931,-1.0931,-1.0931,-1.0941,-1.0938,-1.0931,-1.093,-1.093,-1.093,0,-1.0706,-1.0712,-1.075,-1.0767,-1.0772,-1.0797,-1.0813,-1.0834,-1.084,-1.087,-1.0878,-1.0888,-1.0916,-1.0922,-1.0955,-1.0958,-1.1,-1.0997,-1.0994,-1.0994,-1.102,-1.1018,-1.1102,-1.1114,-1.1042,-1.1042,-1.1043,0,-1.0742,-1.0765,-1.0785,-1.08,-1.0811,-1.0836,-1.0852,-1.0854,-1.0871,-1.0894,-1.0913,-1.094,-1.0962,-1.1007,-1.1017,-1.1043,-1.1041,-1.1069,-1.1045,-1.1044,-1.1042,-1.1041,-1.1044,-1.1073,-1.1074,-1.1075,-1.1075,0,-1.0804,-1.0806,-1.0828,-1.0852,-1.0871,-1.089,-1.0908,-1.0921,-1.0926,-1.0945,-1.0973,-1.099,-1.1024,-1.1051,-1.1077,-1.1088,-1.1083,-1.1083,-1.109,-1.1091,-1.1088,-1.1091,-1.1007,-1.1081,-1.108,-1.108,-1.108,-1.1079,-1.0849,-1.087,-1.0887,-1.0912,-1.0926,-1.0943,-1.0964,-1.0973,-1.0996,-1.1024,-1.1024,-1.1055,-1.1073,-1.1107,-1.1119,-1.1144,-1.1136,-1.1146,-1.1149,-1.1152,-1.1155,-1.1084,-1.1149,-1.1149,-1.1148,-1.1148,-1.1148,0,-1.0912,-1.0922,-1.0945,-1.0971,-1.0991,-1.0984,-1.1003,-1.1021,-1.1048,-1.1065,-1.1087,-1.112,-1.1146,-1.1159,-1.1186,-1.1203,-1.1202,-1.121,-1.1209,-1.1212,-1.116,-1.1152,-1.1211,-1.1211,-1.1211,-1.1211,-1.1211,-1.1211,-1.0947,-1.0982,-1.0986,-1.1028,-1.1039,-1.1069,-1.1081,-1.1097,-1.111,-1.1147,-1.1169,-1.1177,-1.1193,-1.122,-1.1245,-1.1248,-1.1258,-1.1268,-1.127,-1.1222,-1.1215,-1.1209,-1.1201,-1.127,-1.127,-1.1319,-1.132,-1.132]},{"header":{"parameterUnit":"m.s-1","parameterCategory":1,"la1":30.2991,"la2":30.254,"lo1":-89.0895,"lo2":-89.0444,"dy":0.0017,"dx":0.0017,"nx":28,"ny":28,"refTime":"2023-09-11T03:00:00:Z","depth":0,"parameterNumber":3,"parameterNumberName":"V-component_of_WINDS"},"data":[0,0,0,0,0,0,0,0,0,0,0,0,0,0,0,0,0,0,0,0,0,0,0,0,0,0,0,0,0,0,0,0,0,0,0,0,0,0,0,0,0,0,0,0,0,0,0,0,0,0,0,0,0,0,0,0,0,0,3.6635,3.6636,0,3.6699,3.67,3.6701,3.6668,3.6666,3.6664,3.6663,3.6724,3.6727,3.673,0,0,0,0,0,0,0,0,0,0,0,0,0,3.6479,3.6482,3.6635,3.6636,3.6637,3.6699,3.67,3.6701,3.6668,3.6666,3.6664,3.6662,3.6723,3.6726,3.673,0,0,0,0,0,0,0,0,0,0,0,0,0,3.6545,3.6483,3.6635,3.6628,3.6628,3.6699,3.67,3.6701,3.6668,3.6666,3.6663,3.6661,3.6721,3.6726,3.6731,3.6811,0,0,3.6745,3.6748,0,0,0,0,0,0,0,0,3.6542,3.6551,3.6628,3.6629,3.6629,3.6673,3.6667,3.6738,3.6669,3.6653,3.6663,3.666,3.6709,3.6714,3.6732,3.6814,3.6817,3.6746,3.6749,3.6751,3.6752,0,0,0,0,0,0,0,3.6537,3.6548,3.6661,3.6629,3.663,3.662,3.6627,3.6681,3.6694,3.6654,3.6652,3.666,3.6708,3.6727,3.6733,3.6818,3.6746,3.675,3.6753,3.6755,3.6967,3.6969,0,0,0,0,0,0,3.6534,3.6545,3.6659,3.6662,3.6578,3.6625,3.6632,3.6661,3.6693,3.6696,3.6662,3.6658,3.672,3.6727,3.6735,3.6829,3.6751,3.6755,3.6758,3.6964,3.6967,3.697,0,0,0,0,0,0,3.653,3.6544,3.6656,3.6603,3.6616,3.663,3.6663,3.6664,3.6683,3.67,3.6701,3.668,3.6719,3.6728,3.6792,3.6831,3.6757,3.6762,3.6961,3.6965,3.6969,3.702,0,0,0,0,0,0,3.6526,3.6543,3.6575,3.6604,3.6619,3.6714,3.6666,3.6667,3.6692,3.6687,3.6716,3.6719,3.6717,3.6785,3.6797,3.6836,3.6766,3.6957,3.6963,3.6967,3.7015,3.7026,3.7035,0,0,0,0,0,3.6521,3.6587,3.6577,3.6591,3.666,3.6716,3.6725,3.6723,3.6695,3.6726,3.6737,3.6718,3.6825,3.6792,3.6805,3.6847,3.6955,3.6961,3.6967,3.7011,3.7024,3.7035,0,0,0,0,0,0,3.6561,3.659,3.658,3.6658,3.6685,3.6711,3.675,3.6737,3.6772,3.6766,3.6761,3.6768,3.6834,3.6847,3.6809,3.6925,3.6885,3.6894,3.6914,3.6927,3.6936,3.6931,3.677,0,0,0,0,0,3.6579,3.6624,3.6647,3.6713,3.6727,3.6737,3.6761,3.6757,3.6785,3.6796,3.6811,3.6837,3.6876,3.6902,3.694,3.7017,3.7022,3.7052,3.7062,3.707,3.7077,3.7117,3.713,3.699,3.699,3.699,0,0,3.6616,3.6638,3.6666,3.6721,3.6742,3.6787,3.6746,3.6796,3.6828,3.6803,3.6864,3.6876,3.6905,3.6975,3.7007,3.6988,3.7117,3.7078,3.7084,3.7087,3.7125,3.7138,3.715,3.6995,3.6994,3.6993,0,0,3.6707,3.6729,3.6786,3.6807,3.6839,3.6845,3.6859,3.6887,3.6894,3.6956,3.6937,3.6975,3.7044,3.7064,3.7084,3.7181,3.7164,3.7194,3.7244,3.7283,3.7294,3.7304,3.7337,3.7349,3.7201,3.7201,3.7201,0,3.6749,3.6817,3.6816,3.6867,3.689,3.6871,3.6927,3.6948,3.699,3.7006,3.6984,3.7069,3.7087,3.7161,3.7185,3.7202,3.7216,3.719,3.7293,3.7302,3.7311,3.7343,3.7355,3.7205,3.7204,3.7204,3.7204,0,3.6866,3.6913,3.6955,3.6997,3.7026,3.7079,3.7084,3.7113,3.7107,3.7114,3.7176,3.7197,3.7238,3.7255,3.725,3.7329,3.7315,3.7294,3.7253,3.7328,3.7357,3.7369,3.7209,3.7208,3.7207,3.7206,0,0,3.6983,3.7024,3.7039,3.7058,3.7091,3.7127,3.7178,3.7219,3.7243,3.7273,3.7314,3.7373,3.7352,3.7374,3.7371,3.7405,3.7479,3.7379,3.7379,3.7395,3.7565,3.758,3.7594,3.7468,3.747,3.7472,3.7562,0,3.7075,3.7166,3.7166,3.725,3.7292,3.7274,3.7318,3.7343,3.7351,3.7387,3.7395,3.7436,3.7407,3.742,3.7453,3.7463,3.7512,3.7456,3.7504,3.7506,3.7497,3.7609,3.7626,3.7709,3.7573,3.7575,3.7577,0,3.7194,3.7228,3.7316,3.7343,3.736,3.7401,3.7437,3.7473,3.7499,3.7502,3.7527,3.7518,3.7568,3.7527,3.7595,3.7557,3.7577,3.7584,3.7587,3.759,3.7545,3.7614,3.7736,3.7748,3.7595,3.7593,3.7592,0,3.7268,3.7337,3.7398,3.7414,3.7447,3.7475,3.749,3.7514,3.7538,3.757,3.7585,3.7622,3.7641,3.7669,3.7669,3.764,3.7737,3.7697,3.7739,3.7739,3.7759,3.7758,3.7885,3.7775,3.7775,3.7774,3.7774,0,3.737,3.7424,3.7431,3.7469,3.7528,3.7527,3.7585,3.7597,3.7619,3.7656,3.7643,3.7678,3.7677,3.7713,3.7713,3.7768,3.7777,3.778,3.7779,3.778,3.778,3.7792,3.7786,3.7778,3.7777,3.7776,3.7776,0,3.7462,3.747,3.7535,3.7561,3.7568,3.7611,3.7632,3.7666,3.7673,3.7721,3.7732,3.7743,3.7784,3.7787,3.7834,3.7834,3.7901,3.7894,3.7892,3.789,3.7932,3.7927,3.8069,3.8087,3.7968,3.7969,3.797,0,3.7526,3.7567,3.7597,3.7623,3.7639,3.768,3.7704,3.7704,3.773,3.7763,3.7793,3.7833,3.7865,3.7931,3.7941,3.7977,3.797,3.8018,3.7975,3.7975,3.7969,3.7966,3.7969,3.8025,3.8027,3.8028,3.8029,0,3.7637,3.7639,3.7676,3.7714,3.7743,3.7773,3.7801,3.7821,3.7824,3.7854,3.7896,3.7921,3.7969,3.8008,3.8043,3.8056,3.8042,3.8042,3.8053,3.8054,3.8051,3.8051,3.7912,3.8038,3.8037,3.8037,3.8036,3.8036,3.7716,3.7751,3.7778,3.7819,3.784,3.7865,3.7899,3.791,3.7946,3.7986,3.7983,3.803,3.8053,3.8099,3.8115,3.815,3.8134,3.815,3.8154,3.8158,3.8162,3.8047,3.8156,3.8156,3.8156,3.8156,3.8155,0,3.7825,3.7841,3.7879,3.7918,3.795,3.7936,3.7965,3.7992,3.8033,3.8058,3.8089,3.8137,3.8175,3.8188,3.8225,3.825,3.8244,3.8259,3.8256,3.8259,3.8175,3.8161,3.8263,3.8263,3.8263,3.8263,3.8263,3.8263,3.7885,3.7944,3.7948,3.8016,3.8031,3.8077,3.8095,3.8118,3.8137,3.8191,3.8223,3.8232,3.8251,3.8289,3.8322,3.8325,3.8338,3.8355,3.8355,3.8276,3.8265,3.8255,3.8241,3.8359,3.8359,3.8436,3.8437,3.8438]}]]